Tracking 28052 objects as of 22-Sep-2023
HD Live streaming from Space Station
objects crossing your sky now

ATLAS F DEB

Track ATLAS F DEB now!
10-day predictions


NORAD ID: 29197
Int'l Code: 1978-047C
Perigee: 643.9 km
Apogee: 5,336.0 km
Inclination: 63.8 °
Period: 150.2 minutes
Semi major axis: 9360 km
RCS: 0.105 m2 (medium)
Launch date: May 13, 1978
Source: United States (US)
Launch site: AIR FORCE WESTERN TEST RANGE (AFWTR)

Note: This is SATELLITE DEBRIS
Your satellite tracking list
Your tracking list is empty




NASA's NSSDC Master Catalog

Two Line Element Set (TLE):
1 29197U 78047C   23264.71266500  .00006004  00000-0  92380-2 0  9992
2 29197  63.8118 339.6544 2506192  46.5732  22.2702  9.58564889649470
Source of the keplerian elements: AFSPC